User: anonymous   Login
Location: Unspecified
(0.0000°N, 0.0000°E)
Time: 19:04:27
(UTC+01:00)
Language:

Gbstr 26 Del rocket - Orbit

View from above orbital plane
View from above orbital plane
View from above satellite
View from above satellite

Ground track
Ground track

The orbit data is extracted from the following two-line orbital elements,

1 25876U 99041E   17059.35999692  .00000150  00000-0  68283-4 0  9992
2 25876  51.7645  26.2046 0532257  70.8900 294.8864 14.03990706899338
Epoch (UTC): 28 February 2017 08:38:23
Eccentricity: 0.0532257
inclination: 51.7645°
perigee height: 493 km
apogee height: 1266 km
right ascension of ascending node: 26.2046°
argument of perigee: 70.8900°
revolutions per day: 14.03990706
mean anomaly at epoch: 294.8864°
orbit number at epoch: 89933

The dashed part of the orbit path shows where the satellite is in the earth's shadow,  

DLR